Simultaneous Nadir Overpasses (SNOs) Predictions

Prediction of SNOs between METOP-C and LANDSAT-8 Satellite Orbit:

Table of predicted SNOs for the next 14.0 days since TLE Epoch: 9/10/2022
Index Date (METOP-C) Time (METOP-C) Lat,Lon (METOP-C) SZA (METOP-C ) Date (LANDSAT-8) Time (LANDSAT-8) Lat,Lon (LANDSAT-8) SZA (LANDSAT-8 ) Distance(km) Time Diff (sec)
1 09/12/2022 00:00:39 -81.20, 41.03 100.80 09/12/2022 00:00:49 -81.20, 41.06 100.79 0.59 10
2 09/12/2022 00:51:18 81.23,-150.67 79.34 09/12/2022 00:50:14 81.23,-150.82 79.30 2.45 64
3 09/14/2022 19:34:59 -81.20, 107.50 99.70 09/14/2022 19:35:05 -81.21, 107.65 99.67 2.79 6
4 09/14/2022 20:25:39 81.22, -84.65 80.39 09/14/2022 20:24:31 81.21, -84.63 80.36 0.45 68
5 09/17/2022 14:19:34 80.02, -12.78 78.69 09/17/2022 14:20:44 79.68, -9.91 78.63 67.48 70
6 09/17/2022 15:09:17 -81.21, 174.31 98.54 09/17/2022 15:09:20 -81.21, 174.15 98.56 2.74 3
7 09/17/2022 15:59:58 81.21, -18.27 81.49 09/17/2022 15:58:46 81.21, -18.16 81.47 1.93 72
8 09/20/2022 09:52:59 81.18, 72.43 82.44 09/20/2022 09:54:10 81.19, 72.53 82.48 1.72 71
9 09/20/2022 10:43:37 -81.21,-119.29 97.43 09/20/2022 10:43:36 -81.21,-119.45 97.45 2.64 1
10 09/23/2022 05:27:19 81.18, 138.73 83.54 09/23/2022 05:28:26 81.18, 138.82 83.58 1.63 67



Historial Predications of SNOs between METOP-C and LANDSAT-8
